Date,TemperatureHighF,TemperatureAvgF,TemperatureLowF,DewpointHighF,DewpointAvgF,DewpointLowF,HumidityHigh,HumidityAvg,HumidityLow,PressureMaxIn,PressureMinIn,WindSpeedMaxMPH,WindSpeedAvgMPH,GustSpeedMaxMPH,PrecipitationSumIn
2013-1-1,49.6,47.0,42.8,48.5,40.4,29.1,96,79,51,30.36,30.21,11,2,13,0.33
2013-1-2,51.6,46.9,41.9,47.7,41.6,33.7,97,83,64,30.41,30.17,5,1,6,0.07
2013-1-3,45.5,39.7,30.6,35.4,32.8,27.1,88,76,66,30.52,30.37,4,1,5,0.00
2013-1-4,59.5,39.0,26.2,29.9,21.5,16.2,83,54,23,30.58,30.46,8,2,10,0.00
2013-1-5,53.4,39.2,25.5,31.4,23.4,17.0,74,55,25,30.63,30.47,6,1,8,0.00
2013-1-6,62.1,44.8,35.2,39.8,35.4,27.3,88,71,41,30.48,30.29,10,2,11,0.01
2013-1-7,59.0,40.0,29.1,30.9,27.6,24.6,84,63,31,30.67,30.44,7,1,9,0.01
2013-1-8,53.6,40.2,27.5,40.0,32.5,22.8,87,75,55,30.70,30.61,4,1,4,0.00
2013-1-9,68.2,52.2,39.4,54.0,45.1,35.7,90,78,56,30.69,30.62,8,1,8,0.00
2013-1-10,73.8,55.8,48.4,53.8,45.2,38.8,96,71,35,30.75,30.62,4,1,4,0.00
2013-1-11,52.7,46.9,45.5,47.6,45.7,40.9,99,96,64,30.62,30.42,5,1,5,0.11
2013-1-12,67.8,56.5,46.8,62.8,55.2,46.5,99,96,83,30.43,30.35,4,1,4,0.02
2013-1-13,72.0,62.5,54.9,62.0,58.9,54.0,99,89,66,30.40,30.30,10,2,15,0.00
2013-1-14,64.6,62.8,60.8,63.4,61.0,59.0,97,94,86,30.39,30.32,8,3,9,0.19
2013-1-15,62.1,46.6,41.2,61.2,46.2,40.9,99,98,97,30.45,30.33,10,2,11,0.26
2013-1-16,50.7,45.5,41.2,49.3,44.8,40.9,99,98,93,30.33,30.21,6,1,8,0.24
2013-1-17,50.9,45.9,33.4,50.6,45.3,32.2,99,98,94,30.39,30.10,21,3,21,1.77
2013-1-21,72.0,50.7,35.6,47.8,41.8,34.3,99,75,39,29.87,29.74,4,1,4,0.00
2013-1-22,58.5,55.3,53.1,46.3,45.6,45.2,75,70,64,29.81,29.79,0,0,0,0.00
2013-1-27,50.7,41.0,38.7,47.0,32.9,29.2,87,73,67,29.93,29.50,2,1,3,0.07
2013-1-28,51.3,42.4,36.3,44.3,35.6,29.2,93,77,65,29.92,29.70,8,2,8,0.02
2013-1-29,75.9,58.2,41.9,58.8,51.1,41.4,98,79,54,29.71,29.51,13,3,20,0.00
2013-1-30,72.5,65.5,53.1,62.1,59.6,48.9,96,82,61,29.51,28.92,23,9,28,1.06
2013-1-31,54.5,43.2,33.3,48.5,26.0,16.0,89,53,27,29.49,28.99,17,5,24,0.06
2013-2-1,44.6,35.4,23.7,27.6,9.7,-0.7,61,36,20,29.81,29.36,18,5,21,0.00
2013-2-2,48.2,34.2,22.3,34.2,15.3,6.6,78,49,21,29.83,29.50,20,3,23,0.00
2013-2-3,56.8,42.2,32.5,34.5,26.9,20.7,86,57,32,29.50,29.33,14,4,15,0.00
2013-2-4,53.8,39.5,27.9,27.5,22.5,16.4,70,52,27,29.60,29.45,11,2,12,0.00
2013-2-5,68.2,48.6,37.4,37.8,32.0,27.2,75,55,29,29.45,29.36,8,2,11,0.00
2013-2-6,70.0,49.1,35.1,34.8,26.4,16.8,86,49,13,29.70,29.45,10,2,12,0.00
2013-2-7,43.9,39.4,36.9,38.9,33.7,25.0,99,81,56,29.76,29.49,8,3,14,0.59
2013-2-8,62.6,46.6,37.2,47.3,37.4,27.0,99,73,40,29.57,29.34,11,4,14,0.01
2013-2-9,64.2,43.5,29.5,27.9,21.9,14.5,77,47,17,29.80,29.57,7,2,9,0.00
2013-2-10,59.4,42.9,31.1,41.6,27.0,16.9,94,58,22,29.91,29.64,11,2,12,0.12
2013-2-11,57.7,49.9,42.4,56.8,49.0,41.6,99,97,92,29.64,29.44,11,2,16,0.09
2013-2-12,66.7,51.8,41.2,50.8,35.0,21.7,99,58,19,29.58,29.38,7,2,8,0.01
2013-2-13,48.7,44.3,38.5,46.7,42.5,32.9,99,93,66,29.42,29.13,7,2,8,0.26
2013-2-14,56.7,41.9,30.4,35.8,31.7,27.3,90,70,42,29.52,29.33,13,2,13,0.01
2013-2-15,67.1,47.9,30.9,40.9,33.1,26.7,93,62,24,29.56,29.39,12,3,14,0.00
2013-2-16,46.0,36.3,25.0,36.5,28.9,20.3,93,75,61,29.46,29.31,8,1,11,0.00
2013-2-17,44.8,30.8,19.6,21.1,11.6,2.9,84,50,21,29.71,29.45,17,2,17,0.05
2013-2-18,55.9,38.9,22.6,28.8,18.9,7.1,65,46,25,29.82,29.65,11,3,12,0.00
2013-2-19,48.6,41.6,36.0,43.9,33.5,12.6,98,75,28,29.67,29.34,12,3,13,0.17
2013-2-20,59.7,43.2,28.8,23.2,13.5,1.8,55,31,19,29.59,29.47,9,2,13,0.01
2013-2-21,62.8,42.2,25.3,36.7,19.9,9.4,86,44,20,29.74,29.55,8,1,8,0.04
2013-2-22,40.8,37.7,36.1,38.4,36.4,35.1,99,95,87,29.77,29.57,4,1,5,0.35
2013-2-23,44.1,39.8,35.2,43.5,39.0,34.7,99,97,93,29.61,29.31,5,1,8,0.14
2013-2-24,69.1,51.4,39.4,48.0,33.6,21.6,99,60,17,29.50,29.31,11,3,11,0.01
2013-2-25,44.8,39.8,36.3,29.1,27.2,25.0,69,61,51,29.66,29.49,7,2,7,0.00
2013-2-26,39.4,36.3,32.7,39.1,34.2,23.8,99,93,58,29.56,29.07,10,3,11,1.17
2013-2-27,62.2,47.6,38.3,43.4,38.7,35.1,99,75,41,29.28,29.12,17,3,17,0.01
2013-2-28,52.5,41.4,33.4,34.9,28.9,21.6,78,63,33,29.28,29.19,10,2,11,0.00
2013-3-21,48.0,38.8,29.8,26.3,10.6,0.1,53,32,21,29.45,29.28,12,5,12,0.00
2013-3-22,54.3,38.3,21.2,23.5,15.1,9.4,67,41,22,29.55,29.43,7,2,7,0.00
2013-3-23,62.4,46.5,35.6,40.3,33.6,23.7,83,62,37,29.52,29.38,6,1,6,0.00
2013-3-24,44.1,40.8,37.4,42.6,40.0,37.1,99,97,87,29.41,29.04,7,2,7,0.89
2013-3-25,50.7,40.7,33.8,41.4,28.5,18.3,99,67,28,29.35,29.03,11,4,11,0.05
2013-3-26,48.0,39.5,29.5,27.9,24.1,22.1,75,55,41,29.63,29.34,10,4,10,0.00
2013-3-27,55.2,41.2,32.0,27.5,21.7,17.6,73,47,24,29.72,29.63,10,3,10,0.00
2013-3-28,60.6,42.4,25.5,27.9,20.3,15.9,73,45,21,29.77,29.65,10,2,13,0.00
2013-3-29,67.3,48.4,29.7,36.8,25.6,20.7,70,45,18,29.81,29.65,13,2,13,0.00
2013-3-30,68.7,55.6,44.2,45.1,39.1,32.6,93,57,29,29.69,29.53,7,2,8,0.00
2013-3-31,68.9,56.4,50.4,60.0,52.6,44.4,99,88,63,29.53,29.28,12,2,14,0.46
2013-4-1,75.4,60.9,46.9,56.8,44.6,35.6,99,62,26,29.43,29.31,12,3,16,0.02
2013-4-2,68.4,54.1,36.7,36.7,27.3,16.3,85,41,16,29.63,29.43,13,3,15,0.00
2013-4-3,63.7,51.7,38.5,33.7,22.6,15.2,56,34,18,29.75,29.60,8,2,11,0.00
2013-4-4,46.6,40.8,35.2,38.4,30.9,15.6,99,72,30,29.76,29.45,11,3,17,0.79
2013-4-5,71.8,51.6,36.3,47.7,39.6,25.3,99,70,22,29.52,29.38,8,3,13,0.01
2013-4-6,73.0,56.2,39.0,41.6,36.8,30.2,88,53,22,29.71,29.51,10,2,10,0.00
2013-4-7,73.4,59.6,46.0,51.6,44.7,38.7,82,60,36,29.72,29.57,12,4,13,0.00
2013-4-8,80.6,65.8,52.3,59.2,52.6,47.3,96,65,38,29.64,29.52,14,3,21,0.00
2013-4-9,88.0,71.2,55.4,60.8,55.5,50.7,91,60,36,29.67,29.55,14,3,15,0.00
2013-4-10,89.4,73.9,59.4,61.8,58.2,54.9,88,60,36,29.59,29.43,14,3,17,0.00
2013-4-11,83.3,70.9,61.7,67.9,61.1,56.8,99,73,46,29.47,29.23,15,4,17,0.30
2013-4-12,84.9,71.4,60.3,68.1,57.1,35.8,99,66,29,29.31,29.12,15,6,17,0.91
2013-4-13,80.4,64.7,44.4,45.3,39.1,28.5,85,43,18,29.51,29.30,10,2,11,0.00
2013-4-14,79.3,63.3,44.4,55.6,43.3,35.0,82,51,27,29.58,29.47,10,2,13,0.00
2013-4-15,68.0,59.3,55.6,62.3,57.6,51.6,99,94,69,29.68,29.47,6,2,10,0.21
2013-4-16,81.1,66.7,55.9,64.3,58.9,55.7,99,79,47,29.78,29.65,10,2,11,0.00
2013-4-17,82.4,70.1,58.1,64.0,60.2,55.8,97,74,42,29.72,29.59,7,1,7,0.00
2013-4-18,81.0,70.3,62.1,64.6,61.2,57.8,95,75,47,29.65,29.47,14,3,14,0.00
2013-4-19,77.5,67.4,56.3,67.5,62.7,52.5,95,85,65,29.47,29.22,20,6,20,0.22
2013-4-20,69.8,55.5,42.6,50.9,33.8,23.7,82,48,19,29.73,29.38,8,3,8,0.00
2013-4-21,68.7,53.1,39.9,44.3,38.7,33.1,85,60,36,29.93,29.74,8,2,8,0.00
2013-4-22,69.8,53.8,41.4,42.1,34.8,24.8,84,54,19,29.91,29.70,9,2,14,0.00
2013-4-23,73.8,58.7,46.4,53.8,46.3,36.4,85,65,42,29.74,29.57,6,2,8,0.00
2013-4-24,75.4,62.6,49.5,58.2,54.7,49.2,99,77,53,29.61,29.46,14,4,21,0.00
2013-4-25,77.4,61.6,50.7,58.4,41.0,28.2,90,51,17,29.76,29.51,8,2,10,0.00
2013-4-26,76.8,59.9,44.8,49.7,37.7,30.1,72,48,19,29.91,29.75,8,1,8,0.00
2013-4-27,63.9,58.2,54.9,57.6,52.7,47.9,99,83,67,29.83,29.73,4,1,5,0.06
2013-4-28,56.1,55.3,54.5,55.9,54.8,53.7,99,98,97,29.73,29.51,4,1,5,1.74
2013-4-29,77.4,61.7,55.2,64.0,58.5,54.4,99,90,57,29.54,29.42,5,1,6,0.11
2013-4-30,76.8,63.1,56.7,63.2,59.1,56.3,99,88,59,29.65,29.47,5,1,5,0.00
2013-5-1,69.3,59.9,53.8,58.7,56.5,53.0,99,89,65,29.77,29.65,8,2,9,0.00
2013-5-2,63.1,58.8,55.4,57.4,56.2,55.1,99,92,80,29.79,29.71,6,2,7,0.05
2013-5-3,69.1,60.5,54.1,56.5,53.4,45.9,97,78,59,29.72,29.60,7,2,8,0.01
2013-5-4,66.0,55.9,49.8,52.0,47.9,43.6,86,75,58,29.62,29.49,8,3,8,0.00
2013-5-5,57.2,53.2,49.6,56.9,50.6,47.0,99,91,82,29.54,29.35,11,3,11,0.52
2013-5-6,76.6,62.4,52.0,63.5,55.6,46.8,99,81,39,29.38,29.29,6,2,8,1.23
2013-5-7,77.0,58.3,48.2,55.2,50.9,46.5,99,80,36,29.43,29.33,8,1,11,0.07
2013-5-8,77.7,62.3,50.0,61.1,55.6,49.7,99,81,50,29.49,29.39,6,1,8,0.01
2013-5-9,87.3,68.3,52.0,64.5,56.0,51.4,99,70,36,29.57,29.48,8,1,8,0.00
2013-5-10,87.3,71.0,55.2,64.3,59.7,54.4,99,70,41,29.55,29.43,8,1,14,0.00
2013-5-11,83.5,71.2,61.9,64.6,61.4,57.4,98,73,47,29.45,29.28,8,2,9,0.14
2013-5-12,76.5,64.2,52.2,61.5,48.1,33.4,99,62,24,29.52,29.33,11,2,14,0.04
2013-5-13,73.4,57.3,43.2,41.2,34.5,18.3,82,48,13,29.66,29.52,8,2,12,0.00
2013-5-14,78.4,59.8,40.8,48.0,41.7,37.2,91,56,27,29.73,29.55,9,2,9,0.00
2013-5-15,94.5,73.2,55.2,66.0,57.4,46.9,87,60,37,29.55,29.41,6,2,9,0.00
2013-5-16,89.2,73.5,59.7,64.2,59.9,55.3,91,66,33,29.51,29.42,4,1,8,0.00
2013-5-17,92.3,74.9,59.7,66.5,62.7,59.2,99,69,39,29.58,29.48,5,1,7,0.00
2013-5-18,73.8,68.2,62.6,69.0,64.8,61.5,98,89,77,29.64,29.55,4,0,4,0.07
2013-5-19,83.1,70.1,66.7,70.1,67.3,65.3,99,91,62,29.61,29.51,5,2,8,0.80
2013-5-20,85.5,72.9,67.1,70.8,68.2,66.8,99,86,57,29.61,29.50,4,1,5,0.02
2013-5-21,92.8,75.7,65.5,73.0,68.2,64.9,99,80,44,29.54,29.43,10,1,11,0.00
2013-5-22,89.1,74.0,64.4,71.8,66.8,62.4,99,80,49,29.50,29.37,7,2,9,0.00
2013-5-23,84.9,70.8,63.7,70.1,65.7,62.1,99,85,57,29.48,29.31,4,1,5,0.14
2013-5-24,75.7,65.9,52.9,63.6,48.6,31.7,94,59,21,29.68,29.36,16,3,16,0.00
2013-5-25,84.6,63.4,43.2,52.0,42.6,37.7,90,52,23,29.79,29.62,6,1,8,0.00
2013-5-26,83.8,65.6,54.9,56.3,49.2,42.6,84,58,31,29.77,29.64,6,1,7,0.00
2013-5-27,88.3,70.4,53.8,62.1,56.8,52.0,98,66,38,29.75,29.62,7,1,9,0.00
2013-5-28,90.3,75.4,64.0,65.5,62.9,58.8,94,68,42,29.72,29.62,7,2,9,0.00
2013-5-29,90.1,75.8,62.4,66.2,62.9,59.5,92,67,42,29.73,29.64,10,2,10,0.00
2013-5-30,92.8,75.5,61.0,67.4,62.9,58.5,98,69,36,29.76,29.65,4,1,5,0.00
2013-5-31,92.5,76.7,64.6,70.2,64.9,62.1,99,70,41,29.72,29.59,5,1,8,0.00
2013-6-1,91.6,78.8,68.9,70.1,66.1,63.2,94,68,42,29.61,29.50,7,2,8,0.00
2013-6-2,88.0,74.6,68.0,71.1,67.4,65.0,99,79,53,29.54,29.40,7,2,8,0.18
2013-6-3,88.3,74.2,66.6,72.3,68.6,66.1,99,84,52,29.46,29.33,4,1,4,0.04
2013-6-4,86.5,73.8,64.8,69.0,66.9,64.5,99,81,52,29.57,29.44,7,1,8,0.13
2013-6-5,84.0,71.2,65.7,70.6,67.2,64.8,99,88,63,29.60,29.48,4,1,6,0.13
2013-6-6,79.2,71.9,68.0,74.5,70.6,67.6,99,96,80,29.49,29.30,4,2,9,0.79
2013-6-7,87.8,71.9,67.1,73.8,68.7,66.2,99,91,60,29.34,29.15,7,1,8,0.11
2013-6-8,90.1,75.3,64.9,70.2,67.4,63.2,99,79,46,29.58,29.32,5,1,5,0.00
2013-6-9,90.3,75.5,66.7,72.4,69.2,66.4,99,83,50,29.64,29.54,8,1,8,0.00
2013-6-10,84.0,73.9,68.4,73.6,70.0,66.6,98,88,59,29.58,29.39,6,2,9,0.00
2013-6-11,93.4,77.8,67.8,72.9,66.4,62.0,99,72,41,29.49,29.42,9,2,9,0.00
2013-6-12,97.5,80.1,64.0,75.2,69.6,62.6,96,73,46,29.50,29.38,5,1,7,0.00
2013-6-13,97.2,80.0,68.7,75.0,70.4,61.3,98,76,43,29.38,29.15,16,2,16,0.00
2013-6-14,88.0,74.1,60.6,64.8,57.3,53.9,86,59,34,29.53,29.28,9,3,11,0.00
2013-6-15,91.8,73.6,57.6,65.5,60.5,55.7,95,67,41,29.63,29.53,4,1,5,0.00
2013-6-16,93.0,77.6,65.5,69.6,65.3,61.8,90,68,44,29.62,29.51,7,2,8,0.00
2013-6-17,89.6,75.3,69.8,73.1,69.6,66.2,96,84,52,29.53,29.43,4,1,8,0.44
2013-6-18,73.8,73.8,73.8,72.3,72.3,72.3,95,95,95,29.46,29.29,1,1,2,0.44
2013-6-19,73.8,73.8,73.8,72.3,72.3,72.3,95,95,95,29.61,29.39,1,1,2,0.44
2013-6-20,73.8,73.8,73.8,72.3,72.3,72.3,95,95,95,29.72,29.61,1,1,2,0.44
2013-6-21,73.8,73.8,73.8,72.3,72.3,72.3,95,95,95,29.76,29.67,1,1,2,0.44
2013-6-22,73.8,73.8,73.8,72.3,72.3,72.3,95,95,95,29.72,29.61,1,1,2,0.44
2013-6-23,73.8,73.8,73.8,72.3,72.3,72.3,95,95,95,29.70,29.61,1,1,2,0.44
2013-6-24,73.8,73.2,45.9,72.4,71.8,36.4,98,95,68,30.05,29.59,2,1,2,0.44
2013-6-25,96.3,79.2,70.3,75.0,71.2,67.4,99,79,44,29.95,29.81,4,1,7,0.01
2013-6-26,95.7,77.5,69.4,74.8,70.0,62.8,97,80,47,29.85,29.72,23,2,23,0.01
2013-6-27,95.0,79.1,71.6,74.5,72.1,69.3,98,81,49,29.76,29.55,4,1,4,0.05
2013-6-28,95.0,77.2,69.4,73.0,70.7,68.9,99,83,47,29.59,29.44,4,1,4,0.77
2013-6-29,93.9,78.4,68.5,75.6,70.5,68.3,99,80,45,29.54,29.45,6,1,8,0.13
2013-6-30,87.3,75.2,66.9,74.2,70.1,66.4,98,85,58,29.67,29.51,5,1,9,0.14
2013-7-1,86.5,74.9,66.0,72.4,69.7,65.8,99,85,57,29.78,29.64,8,1,8,0.06
2013-7-2,81.3,73.6,71.2,74.1,71.1,70.1,97,92,73,29.95,29.77,10,3,10,1.20
2013-7-3,80.6,74.8,70.9,75.1,72.7,70.3,99,93,77,30.02,29.93,5,1,6,0.38
2013-7-4,90.0,76.4,69.8,77.0,72.1,68.5,98,88,55,30.06,29.95,8,2,9,0.65
2013-7-5,84.4,74.6,70.5,78.0,72.5,66.7,99,93,77,30.07,29.99,11,1,11,0.85
2013-7-6,89.6,76.7,71.1,75.2,71.7,69.9,98,86,56,30.05,29.92,6,1,8,0.07
2013-7-7,91.8,78.1,72.7,76.9,73.3,71.4,98,86,58,29.99,29.88,6,1,7,0.07
2013-7-8,94.1,78.8,71.6,76.0,72.0,67.7,99,82,47,30.00,29.91,5,1,8,0.04
2013-7-9,96.1,81.8,71.2,76.1,72.9,70.4,97,77,49,29.97,29.86,4,1,5,0.00
2013-7-12,80.6,66.9,55.9,63.7,58.9,55.7,99,78,48,30.09,29.97,10,2,10,0.00
2013-7-13,81.7,70.0,58.1,63.3,60.3,57.0,97,74,46,30.03,29.91,5,1,5,0.00
2013-7-14,80.6,70.5,62.4,63.2,61.1,58.1,94,74,48,29.96,29.78,8,3,8,0.00
2013-7-15,77.2,67.2,56.1,67.5,62.5,50.4,95,85,65,29.78,29.53,20,6,20,0.22
2013-7-16,69.3,55.2,43.0,48.0,33.7,23.6,80,48,20,30.05,29.71,6,2,6,0.00
2013-7-17,68.5,53.1,39.9,43.8,38.7,33.4,85,60,36,30.24,30.06,7,2,7,0.00
2013-7-18,75.4,54.2,41.4,72.0,36.4,26.0,89,56,20,30.22,29.92,7,2,7,0.00
2013-7-19,95.5,81.9,71.4,76.0,72.8,70.1,97,76,48,29.93,29.80,4,1,6,0.00
2013-7-20,91.0,78.0,72.1,76.0,73.0,70.4,95,85,59,29.85,29.74,6,1,7,0.06
2013-7-21,92.5,76.8,70.0,75.7,72.1,68.8,97,87,54,29.83,29.74,6,1,6,0.01
2013-7-22,91.2,78.4,70.5,75.1,71.8,69.4,97,82,56,29.81,29.65,4,1,8,0.00
2013-7-23,95.7,80.6,70.9,73.9,70.1,66.9,96,73,42,29.67,29.58,8,1,9,0.00
2013-7-24,98.1,80.5,68.7,73.4,70.0,63.8,96,73,43,29.68,29.57,7,1,7,0.37
2013-7-25,89.1,75.9,66.7,72.8,68.2,64.5,97,79,52,29.84,29.65,5,1,7,0.01
2013-7-26,91.0,77.1,67.6,70.3,68.4,66.1,97,77,46,29.92,29.82,8,1,8,0.00
2013-7-27,82.0,72.6,68.0,72.4,69.5,66.5,97,90,70,29.85,29.73,7,1,7,1.37
2013-7-28,91.2,77.0,70.0,73.2,69.7,67.6,96,80,52,29.82,29.73,4,1,6,0.30
2013-7-29,92.8,75.5,65.5,69.7,67.4,65.0,99,79,45,29.97,29.81,4,1,4,0.01
2013-7-30,89.8,75.3,65.1,70.6,65.6,61.0,93,74,46,30.04,29.94,4,1,5,0.00
2013-7-31,81.7,73.3,70.2,73.9,70.1,68.6,96,90,71,29.97,29.80,5,1,5,1.05
2013-8-1,92.3,76.6,69.8,73.8,70.8,66.2,96,84,50,29.80,29.69,5,1,8,0.11
2013-8-2,93.9,77.6,66.7,73.6,68.6,64.2,98,77,43,29.85,29.74,4,1,4,0.01
2013-8-3,94.6,79.7,70.2,76.1,71.1,68.7,97,78,46,29.84,29.75,4,1,8,0.00
2013-8-4,93.0,78.8,70.2,71.9,67.7,64.3,91,71,41,29.85,29.73,7,2,11,0.00
2013-8-5,89.1,75.8,67.5,70.6,65.9,61.5,86,72,50,29.89,29.79,4,1,8,0.00
2013-8-6,76.5,72.5,68.0,71.3,68.0,63.4,92,86,74,29.87,29.79,4,2,6,0.01
2013-8-7,87.4,75.7,71.2,74.4,70.4,68.1,94,84,56,29.91,29.83,5,1,6,0.12
2013-8-8,90.5,77.9,71.8,78.7,72.1,68.3,95,83,60,29.88,29.80,5,1,8,0.15
2013-8-9,94.8,78.5,71.6,76.2,72.7,68.4,97,84,53,29.88,29.81,10,1,13,0.96
2013-8-10,96.1,77.2,71.2,78.9,72.6,69.3,98,87,51,29.92,29.85,11,1,11,0.46
2013-8-11,95.5,79.3,69.8,77.5,72.6,68.9,97,82,49,29.94,29.84,4,1,6,0.01
2013-8-12,95.5,78.8,70.3,75.6,71.2,68.2,96,80,48,29.88,29.76,10,1,10,0.00
2013-8-13,92.8,77.0,70.5,74.7,71.4,69.1,97,84,52,29.78,29.63,7,1,8,0.04
2013-8-14,85.1,72.5,64.0,70.5,64.7,60.8,94,78,48,29.89,29.68,4,0,5,0.00
2013-8-15,81.1,66.7,59.0,61.8,59.6,57.3,94,79,47,29.97,29.88,4,1,5,0.00
2013-8-16,77.9,65.6,58.8,63.9,60.2,57.0,95,84,58,29.98,29.90,4,1,4,0.00
2013-8-17,64.9,61.9,60.8,61.6,59.8,58.8,95,93,88,30.00,29.95,50,1,50,0.06
2013-8-25,80.6,67.2,55.9,63.7,59.0,55.7,99,78,48,30.32,30.19,10,2,10,0.00
2013-8-26,81.7,71.0,59.0,63.3,61.1,57.8,96,73,46,30.25,30.11,5,1,5,0.00
2013-8-27,80.6,71.3,62.8,63.7,61.5,58.1,94,73,48,30.19,29.90,8,4,8,0.00
2013-8-28,77.2,63.4,46.6,67.5,57.2,35.0,95,81,59,30.03,29.75,20,5,20,0.22
2013-8-29,69.3,53.6,39.9,38.3,32.9,23.6,85,50,20,30.34,30.04,6,2,6,0.00
2013-8-30,68.5,54.0,40.5,43.8,39.5,33.4,85,60,36,30.46,30.35,7,2,7,0.00
2013-8-31,75.4,65.8,41.4,72.6,56.5,26.0,95,77,20,30.44,29.92,7,1,7,0.00
2013-9-1,94.3,75.2,67.8,75.9,69.7,66.8,97,85,52,29.95,29.83,8,1,11,0.61
2013-9-2,92.8,77.5,66.9,75.3,70.9,66.4,98,82,51,29.95,29.85,3,0,4,0.00
2013-9-3,93.2,77.8,68.5,72.2,68.2,64.7,96,75,44,30.01,29.86,7,1,8,0.02
2013-9-4,94.1,74.9,63.7,68.9,64.4,60.3,92,73,42,30.13,30.00,4,1,6,0.00
2013-9-5,92.3,75.3,65.5,69.0,65.3,57.7,97,75,34,30.15,30.08,4,0,4,0.00
2013-9-6,88.0,72.7,63.5,65.3,62.7,59.3,93,74,44,30.24,30.11,5,1,6,0.00
2013-9-7,88.2,72.0,60.3,67.7,64.0,58.8,96,78,47,30.17,30.01,4,1,5,0.00
2013-9-8,92.1,75.6,64.4,71.3,66.3,63.3,97,76,42,30.03,29.96,5,0,6,0.00
2013-9-9,92.3,76.4,66.2,70.9,67.8,65.1,97,78,43,30.17,30.03,4,1,4,0.00
2013-9-10,94.5,77.5,66.4,72.4,69.1,65.2,96,78,42,30.27,30.17,5,1,5,0.00
2013-9-11,95.4,78.8,67.5,72.2,69.1,65.7,94,74,44,30.24,30.11,6,1,6,0.00
2013-9-12,95.7,76.4,67.6,72.3,68.7,65.5,95,80,43,30.12,29.88,12,1,12,0.37
2013-9-13,88.9,73.4,63.5,69.2,61.9,52.9,97,71,36,29.95,29.83,5,2,11,0.00
2013-9-14,81.9,65.7,56.1,58.9,54.0,49.7,91,68,41,30.15,29.95,6,2,7,0.00
2013-9-15,85.5,67.0,54.9,65.9,60.1,54.0,97,80,48,30.25,30.14,4,1,4,0.00
2013-9-16,90.1,73.2,61.5,68.6,63.4,60.4,96,74,42,30.20,30.08,5,1,8,0.00
2013-9-17,77.5,67.9,60.8,60.6,57.8,56.1,85,71,50,30.34,30.19,7,2,51,0.00
2013-9-18,66.6,60.8,57.9,56.7,54.2,53.3,86,79,64,30.33,30.28,4,1,4,0.00
2013-9-19,69.3,54.3,43.0,38.3,32.9,23.6,75,48,20,30.44,30.15,6,2,6,0.00
2013-9-20,68.5,53.7,39.9,43.8,39.2,33.4,85,60,36,30.61,30.46,7,2,7,0.00
2013-9-21,69.4,59.0,41.4,66.1,47.7,26.0,98,72,20,30.59,29.91,7,2,7,0.19
2013-9-22,82.4,66.7,56.8,63.0,58.0,54.2,98,77,43,30.10,29.90,8,2,11,0.01
2013-9-23,80.6,64.4,55.6,59.6,56.0,52.6,95,76,45,30.25,30.10,4,1,5,0.00
2013-9-24,82.4,66.8,58.8,62.6,59.3,57.3,95,79,46,30.26,30.11,5,1,6,0.00
2013-9-25,72.0,64.0,58.3,65.0,60.9,56.9,97,90,68,30.13,30.05,4,0,4,0.08
2013-9-26,79.9,65.1,56.3,61.2,57.6,55.1,99,79,45,30.22,30.06,5,1,6,0.00
2013-9-27,82.6,63.9,54.0,59.6,55.9,52.9,97,78,42,30.36,30.21,6,1,6,0.00
2013-9-28,78.8,61.3,52.9,58.8,54.7,52.3,99,81,46,30.43,30.33,4,1,6,0.00
2013-9-29,77.5,62.3,53.4,58.8,55.7,51.6,95,81,48,30.36,30.21,5,1,5,0.00
2013-9-30,83.3,64.8,52.0,60.2,55.6,51.4,99,76,39,30.27,30.17,5,1,6,0.00
2013-10-1,89.2,67.5,54.5,63.2,58.7,53.4,97,77,38,30.31,30.21,4,0,6,0.00
2013-10-2,89.8,69.1,57.4,63.5,60.0,56.5,97,76,38,30.34,30.24,4,1,5,0.00
2013-10-3,88.5,70.9,60.4,66.1,61.5,59.0,96,76,42,30.32,30.23,7,1,7,0.00
2013-10-4,90.9,72.1,59.5,66.2,62.9,58.1,96,76,41,30.33,30.24,5,1,5,0.00
2013-10-5,91.6,73.1,61.2,68.1,64.1,60.0,97,76,43,30.32,30.21,8,1,8,0.00
2013-10-6,87.1,72.1,62.8,67.9,64.3,61.3,97,79,46,30.23,30.07,8,1,9,0.00
2013-10-7,78.1,69.8,60.1,70.7,64.3,51.7,97,83,70,30.19,29.99,6,2,8,0.98
2013-10-8,73.8,61.8,54.9,52.4,49.4,46.5,77,65,45,30.38,30.19,8,3,11,0.00
2013-10-9,77.7,60.6,51.1,53.9,48.9,45.9,84,67,42,30.40,30.29,8,2,10,0.00
2013-10-10,75.9,61.8,49.6,61.5,54.6,47.5,93,78,60,30.30,30.14,6,2,8,0.00
2013-10-11,82.6,68.8,59.4,63.2,58.6,54.4,87,71,45,30.17,30.09,7,1,9,0.00
2013-10-12,74.5,66.3,59.2,64.4,61.5,57.9,97,85,65,30.26,30.14,0,0,0,0.00
2013-10-13,75.4,66.7,62.1,63.5,61.4,59.7,93,84,65,30.39,30.26,5,1,8,0.00
2013-10-14,75.7,63.8,58.5,62.9,59.6,56.9,97,87,63,30.42,30.32,7,2,7,0.02
2013-10-15,80.6,64.1,56.8,57.9,56.1,53.5,95,78,41,30.38,30.22,5,1,7,0.00
2013-10-16,76.1,64.7,54.1,60.7,57.7,52.6,96,79,57,30.26,30.13,5,1,5,0.00
2013-10-17,74.3,64.8,60.3,64.9,61.8,58.5,96,90,70,30.14,30.02,5,1,6,0.08
2013-10-18,78.1,61.8,53.1,61.6,54.8,50.9,98,80,45,30.22,30.07,6,1,6,0.01
2013-10-19,64.0,58.5,51.8,61.1,56.7,51.3,98,94,85,30.14,30.01,4,0,5,0.02
2013-10-20,73.6,53.8,43.3,51.4,44.4,39.0,99,75,31,30.27,30.09,4,1,5,0.01
2013-10-21,75.7,54.4,40.8,53.1,47.9,40.6,99,81,45,30.32,30.16,5,1,7,0.00
2013-10-22,69.6,60.2,54.7,58.5,54.6,52.1,96,83,55,30.18,29.96,4,0,5,0.00
2013-10-23,69.1,55.9,43.5,56.7,43.7,31.2,99,68,27,30.19,29.90,11,2,14,0.00
2013-10-24,65.7,46.8,34.3,42.6,35.5,30.0,87,67,33,30.32,30.19,8,1,10,0.00
2013-10-25,59.0,44.5,33.4,41.7,32.9,27.5,95,66,34,30.53,30.32,8,2,9,0.00
2013-10-26,64.9,43.9,28.8,37.8,31.7,26.5,93,66,30,30.52,30.22,9,1,9,0.00
2013-10-27,75.9,55.1,39.9,48.5,43.6,37.5,94,68,36,30.29,30.20,7,1,8,0.00
2013-10-28,67.1,56.0,48.0,55.8,51.5,46.6,97,86,66,30.42,30.26,2,0,3,0.00
2013-10-29,79.5,60.4,48.9,57.3,53.2,48.7,99,80,43,30.49,30.39,4,1,6,0.00
2013-10-30,83.1,64.7,54.1,59.6,55.8,52.4,95,76,43,30.44,30.31,7,1,9,0.00
2013-10-31,68.9,63.2,55.8,63.9,57.5,54.3,96,82,67,30.33,30.06,7,1,8,0.00
2013-11-1,69.6,65.6,59.9,65.8,61.1,56.8,95,86,76,30.06,29.84,11,3,11,0.28
2013-11-2,60.3,55.6,50.9,59.1,50.6,37.5,98,85,58,30.15,29.89,3,1,3,0.00
2013-11-3,68.4,50.3,39.0,40.8,37.3,31.9,94,64,28,30.50,30.15,9,1,9,0.00
2013-11-4,65.1,46.6,36.0,38.1,34.3,27.2,90,66,27,30.68,30.50,5,1,6,0.00
2013-11-5,57.4,46.7,35.6,49.1,38.9,28.3,94,75,61,30.70,30.58,5,1,6,0.00
2013-11-6,77.2,57.3,50.2,54.5,50.4,47.8,95,80,44,30.58,30.28,6,1,6,0.00
2013-11-7,75.7,54.4,39.9,59.6,45.6,32.7,99,76,37,30.31,30.12,9,2,11,0.00
2013-11-8,67.3,45.5,33.3,34.0,27.7,20.1,86,56,17,30.47,30.31,7,1,8,0.00
2013-11-9,62.8,45.1,31.3,36.8,30.8,25.7,85,61,25,30.52,30.35,8,1,9,0.00
2013-11-10,78.4,55.2,37.2,40.2,34.4,29.0,90,52,19,30.40,30.26,6,2,8,0.00
2013-11-11,69.3,48.4,32.7,33.5,28.5,23.3,75,49,20,30.50,30.29,6,1,7,0.00
2013-11-12,67.5,44.3,29.5,39.9,30.1,13.2,89,59,27,30.60,30.21,15,3,15,0.00
2013-11-13,56.1,34.5,23.0,20.5,16.1,11.1,72,50,21,30.68,30.58,8,1,9,0.00
2013-11-14,64.9,41.9,26.8,25.7,20.3,15.7,68,46,18,30.60,30.46,11,2,11,0.00
2013-11-15,61.0,47.5,34.2,47.0,32.5,20.3,97,58,32,30.49,30.35,5,1,5,0.00
2013-11-16,66.4,54.7,47.8,56.3,52.1,47.0,99,91,69,30.43,30.36,3,0,4,0.00
2013-11-17,67.1,59.6,53.2,63.4,57.7,51.9,99,94,77,30.38,30.05,6,1,9,0.00
2013-11-18,79.9,64.8,50.5,66.6,48.1,30.3,99,61,25,30.17,29.99,8,3,12,0.00
2013-11-19,62.4,47.4,39.6,32.1,27.7,20.2,71,49,23,30.43,30.17,10,2,10,0.00
2013-11-20,60.6,44.1,35.1,35.1,31.4,26.8,79,62,34,30.60,30.41,8,2,8,0.00
2013-11-21,59.7,49.1,43.7,45.0,39.7,31.9,78,70,57,30.64,30.52,9,2,9,0.00
2013-11-22,64.9,56.7,48.7,58.3,52.3,44.1,94,85,75,30.55,30.26,11,2,11,0.00
2013-11-23,61.9,54.6,41.7,57.5,41.8,13.3,99,67,27,30.37,30.22,14,3,14,0.00
2013-11-24,48.6,34.6,26.8,21.3,7.8,-3.9,51,33,21,30.65,30.36,12,4,13,0.00
2013-11-25,49.1,32.5,21.2,37.4,10.0,0.3,70,41,22,30.68,29.82,8,1,8,3.05
2013-11-26,44.8,36.8,32.2,44.0,33.8,17.2,99,90,46,29.88,29.18,8,1,9,0.00
2013-11-27,45.5,38.7,26.2,44.7,30.9,12.7,99,75,45,29.74,29.10,17,4,17,0.00
2013-11-28,53.4,33.0,20.3,23.9,18.8,12.9,82,58,24,30.00,29.74,6,1,7,0.00
2013-11-29,60.8,37.5,25.0,36.4,24.1,19.5,89,63,24,30.08,29.70,5,1,8,0.00
2013-11-30,53.2,35.4,27.7,27.0,23.5,20.2,83,64,31,30.05,29.79,7,1,8,0.00
2013-12-1,65.7,40.8,26.1,38.1,29.7,21.3,91,68,31,29.78,29.45,5,1,8,0.00
2013-12-2,64.8,45.1,31.1,41.9,36.7,30.4,99,75,38,29.45,29.26,4,1,5,0.00
2013-12-3,61.3,52.0,42.3,51.8,46.8,38.1,96,83,68,29.41,29.30,7,1,7,0.05
2013-12-4,59.4,54.9,51.4,58.6,54.1,51.0,99,97,90,29.51,29.39,4,0,4,0.08
2013-12-5,67.1,63.1,59.2,65.6,62.1,58.6,99,97,88,29.54,29.45,9,4,11,0.09
2013-12-6,70.5,67.7,65.8,65.8,64.1,62.1,99,89,77,29.46,29.40,13,6,13,0.12
2013-12-7,65.1,54.0,44.2,61.5,48.6,36.7,98,82,68,29.84,29.42,8,2,9,0.15
2013-12-8,44.2,37.2,33.8,38.7,34.2,31.0,97,89,77,29.85,29.69,5,2,8,0.31
2013-12-9,43.9,39.3,33.8,43.4,38.8,33.0,99,98,97,29.68,29.47,4,1,4,0.26
2013-12-10,57.0,43.8,30.0,50.5,36.8,18.9,99,79,42,29.74,29.33,11,2,16,0.37
2013-12-11,56.3,37.5,25.0,28.7,23.2,18.0,85,59,26,29.86,29.70,7,1,11,0.00
2013-12-12,54.0,36.9,27.5,25.0,17.5,8.0,82,48,21,29.83,29.70,8,2,9,0.00
2013-12-13,56.3,37.6,23.2,31.5,20.8,11.8,73,54,22,29.78,29.67,8,1,9,0.00
2013-12-14,41.7,38.5,37.2,38.4,36.3,31.8,99,92,74,29.68,29.23,7,2,8,0.50
2013-12-15,57.6,42.2,30.9,42.9,33.9,24.4,99,75,42,29.52,29.18,13,2,13,0.01
2013-12-16,65.1,42.9,27.9,35.6,30.0,23.2,89,64,27,29.59,29.50,8,2,12,0.00
2013-12-17,67.1,50.5,33.8,37.4,33.3,26.1,82,54,28,29.55,29.32,11,3,16,0.00
2013-12-18,58.5,42.2,30.6,26.1,19.0,12.2,65,41,20,29.70,29.49,10,2,10,0.00
2013-12-19,68.5,45.8,29.1,29.7,23.6,18.3,75,46,16,29.73,29.63,10,2,12,0.00
2013-12-20,62.8,51.9,39.6,50.5,41.2,29.2,89,67,51,29.66,29.56,11,2,14,0.00
2013-12-21,67.5,59.3,49.6,62.5,55.0,46.9,96,86,72,29.57,29.43,11,2,12,0.02
2013-12-22,72.9,66.2,61.7,66.7,63.5,59.3,98,91,76,29.51,29.41,13,5,15,0.76
2013-12-23,63.3,57.3,44.2,62.5,55.0,35.1,99,92,69,29.61,29.42,9,3,9,0.80
2013-12-24,49.5,38.3,28.2,35.6,25.5,12.9,94,62,33,29.87,29.59,14,3,14,0.00
2013-12-25,44.6,29.8,21.0,19.0,11.1,2.7,77,48,22,29.95,29.79,7,1,8,0.00
2013-12-26,60.4,36.4,23.5,28.9,20.9,14.2,78,56,24,29.79,29.66,4,1,5,0.00
2013-12-27,58.6,38.4,26.4,26.5,21.5,15.7,79,54,22,29.89,29.77,5,1,6,0.00
2013-12-28,58.6,40.9,26.1,41.0,28.7,18.9,96,64,28,29.82,29.56,7,1,7,0.05
2013-12-29,63.5,46.7,40.5,50.8,43.0,39.0,99,88,61,29.55,29.19,8,2,10,0.77
2013-12-30,57.2,43.9,34.2,42.7,38.5,32.6,98,82,55,29.55,29.37,4,1,4,0.00
2013-12-31,54.9,41.7,32.4,37.8,26.5,15.7,92,60,22,29.78,29.53,11,1,11,0.00
2014-1-1,54.7,39.5,28.8,31.2,26.3,19.3,78,61,34,29.81,29.56,7,1,8,0.00
2014-1-2,45.3,40.3,33.6,44.5,36.8,19.8,99,87,56,29.56,29.08,8,2,10,0.37